When you browse on this site, cookies collect data to enhance your experience and personalize the content and advertising you see.
Visit our Privacy Policy to learn more. By continuing to use the site, you agree to this use of cookies and data.
  • în România
  • Lista ţărilor
  • Pe 7 zile
  • Temperatura apei
  • Hartă satelitară
  • Meteo pe hartă
  • Widget-uri
  • user-avatar
    Intrare

    Meteo pe oră la Gori

    Astăzi, 19 Martie, Marţi

    Timp Temperatura Precipitaţii Vânt Presiune Umiditate
    00:00 +1°C° 0.4 mm 2 m/s 703 mmHg 89%
    01:00 +1°C° 0.3 mm 2 m/s 703 mmHg 89%
    02:00 +1°C° 0.3 mm 2 m/s 703 mmHg 89%
    03:00 0°C° 0 mm 3 m/s 703 mmHg 84%
    04:00 +1°C° 0.1 mm 2 m/s 703 mmHg 83%
    05:00 +1°C° 0.1 mm 2 m/s 703 mmHg 83%
    06:00 +1°C° 0.1 mm 2 m/s 703 mmHg 82%
    07:00 +2°C° 0 mm 2 m/s 703 mmHg 77%
    08:00 +4°C° 0 mm 2 m/s 703 mmHg 71%
    09:00 +5°C° 0 mm 2 m/s 703 mmHg 65%
    10:00 +7°C° 0 mm 1 m/s 703 mmHg 62%
    11:00 +8°C° 0 mm 1 m/s 703 mmHg 59%
    12:00 +10°C° 0 mm 1 m/s 703 mmHg 56%
    13:00 +10°C° 0 mm 1 m/s 702 mmHg 55%
    14:00 +11°C° 0 mm 1 m/s 702 mmHg 54%
    15:00 +11°C° 0 mm 1 m/s 702 mmHg 52%
    16:00 +11°C° 0 mm 1 m/s 702 mmHg 56%
    17:00 +10°C° 0 mm 1 m/s 702 mmHg 59%
    18:00 +8°C° 0 mm 0 m/s 702 mmHg 62%
    19:00 +9°C° 0 mm 1 m/s 703 mmHg 63%
    20:00 +8°C° 0 mm 1 m/s 703 mmHg 65%
    21:00 +7°C° 0 mm 1 m/s 703 mmHg 67%
    22:00 +7°C° 0 mm 1 m/s 703 mmHg 67%
    23:00 +6°C° 0 mm 1 m/s 703 mmHg 68%

    Mâine, 20 Martie, Miercuri

    Timp Temperatura Precipitaţii Vânt Presiune Umiditate
    00:00 +6°C° 0 mm 1 m/s 703 mmHg 68%
    01:00 +6°C° 0 mm 1 m/s 702 mmHg 68%
    02:00 +5°C° 0 mm 1 m/s 702 mmHg 68%
    03:00 +5°C° 0 mm 1 m/s 702 mmHg 68%
    04:00 +5°C° 0 mm 1 m/s 702 mmHg 68%
    05:00 +5°C° 0 mm 1 m/s 702 mmHg 68%
    06:00 +5°C° 0 mm 1 m/s 702 mmHg 68%
    07:00 +6°C° 0 mm 1 m/s 702 mmHg 64%
    08:00 +8°C° 0 mm 1 m/s 701 mmHg 59%
    09:00 +10°C° 0 mm 1 m/s 701 mmHg 55%
    10:00 +11°C° 0 mm 1 m/s 701 mmHg 51%
    11:00 +12°C° 0 mm 1 m/s 701 mmHg 47%
    12:00 +13°C° 0 mm 2 m/s 701 mmHg 44%
    13:00 +14°C° 0 mm 2 m/s 701 mmHg 43%
    14:00 +14°C° 0 mm 2 m/s 700 mmHg 42%
    15:00 +15°C° 0 mm 2 m/s 700 mmHg 41%
    16:00 +14°C° 0 mm 2 m/s 700 mmHg 46%
    17:00 +12°C° 0 mm 2 m/s 700 mmHg 51%
    18:00 +10°C° 0 mm 2 m/s 700 mmHg 56%
    19:00 +9°C° 0 mm 2 m/s 701 mmHg 61%
    20:00 +8°C° 0 mm 2 m/s 701 mmHg 65%
    21:00 +7°C° 0 mm 2 m/s 702 mmHg 70%
    22:00 +8°C° 0 mm 1 m/s 702 mmHg 72%
    23:00 +7°C° 0 mm 1 m/s 702 mmHg 73%

    Poimâine, 21 Martie, Joi

    Timp Temperatura Precipitaţii Vânt Presiune Umiditate
    00:00 +7°C° 0 mm 1 m/s 702 mmHg 75%
    01:00 +6°C° 0 mm 1 m/s 702 mmHg 75%
    02:00 +6°C° 0 mm 1 m/s 702 mmHg 75%
    03:00 +4°C° 0 mm 2 m/s 702 mmHg 76%
    04:00 +4°C° 0 mm 2 m/s 702 mmHg 76%
    05:00 +4°C° 0 mm 2 m/s 702 mmHg 76%
    06:00 +3°C° 0 mm 2 m/s 702 mmHg 76%
    07:00 +5°C° 0 mm 2 m/s 702 mmHg 68%
    08:00 +5°C° 0 mm 3 m/s 702 mmHg 60%
    09:00 +8°C° 0 mm 3 m/s 702 mmHg 53%
    10:00 +9°C° 0 mm 3 m/s 702 mmHg 50%
    11:00 +10°C° 0 mm 4 m/s 701 mmHg 47%
    12:00 +11°C° 0 mm 4 m/s 701 mmHg 44%
    13:00 +11°C° 0 mm 4 m/s 701 mmHg 45%
    14:00 +12°C° 0 mm 5 m/s 701 mmHg 45%
    15:00 +12°C° 0 mm 5 m/s 700 mmHg 45%
    16:00 +10°C° 0 mm 4 m/s 700 mmHg 51%
    17:00 +8°C° 0 mm 4 m/s 700 mmHg 57%
    18:00 +7°C° 0 mm 4 m/s 700 mmHg 63%
    19:00 +7°C° 0 mm 3 m/s 701 mmHg 70%
    20:00 +5°C° 0 mm 3 m/s 701 mmHg 76%
    21:00 +4°C° 0 mm 3 m/s 701 mmHg 83%
    22:00 +4°C° 0 mm 3 m/s 701 mmHg 83%
    23:00 +3°C° 0 mm 3 m/s 701 mmHg 84%

    22 Martie, Vineri

    Timp Temperatura Precipitaţii Vânt Presiune Umiditate
    00:00 +4°C° 0 mm 2 m/s 701 mmHg 84%
    01:00 +4°C° 0 mm 2 m/s 701 mmHg 84%
    02:00 +3°C° 0 mm 2 m/s 701 mmHg 83%
    03:00 +3°C° 0 mm 2 m/s 701 mmHg 83%
    04:00 +3°C° 0 mm 2 m/s 701 mmHg 84%
    05:00 +2°C° 0 mm 2 m/s 701 mmHg 84%
    06:00 +2°C° 0 mm 2 m/s 701 mmHg 85%
    07:00 +2°C° 0 mm 3 m/s 701 mmHg 78%
    08:00 +3°C° 0 mm 3 m/s 701 mmHg 70%
    09:00 +5°C° 0 mm 3 m/s 701 mmHg 62%
    10:00 +6°C° 0 mm 4 m/s 701 mmHg 59%
    11:00 +7°C° 0 mm 5 m/s 701 mmHg 56%
    12:00 +8°C° 0 mm 5 m/s 701 mmHg 53%
    13:00 +7°C° 0.1 mm 6 m/s 700 mmHg 57%
    14:00 +5°C° 0.1 mm 6 m/s 700 mmHg 61%
    15:00 +4°C° 0.1 mm 7 m/s 700 mmHg 65%
    16:00 +3°C° 0.1 mm 7 m/s 700 mmHg 68%
    17:00 +2°C° 0.1 mm 6 m/s 700 mmHg 70%
    18:00 +1°C° 0.1 mm 6 m/s 700 mmHg 73%
    19:00 +1°C° 0 mm 6 m/s 701 mmHg 74%
    20:00 0°C° 0 mm 5 m/s 701 mmHg 75%
    21:00 0°C° 0 mm 5 m/s 702 mmHg 77%
    22:00 0°C° 0 mm 5 m/s 702 mmHg 76%
    23:00 0°C° 0 mm 4 m/s 702 mmHg 76%

    23 Martie, Sâmbătă

    Timp Temperatura Precipitaţii Vânt Presiune Umiditate
    00:00 0°C° 0 mm 4 m/s 702 mmHg 76%
    01:00 -1°C° 0.1 mm 4 m/s 702 mmHg 77%
    02:00 -1°C° 0.1 mm 4 m/s 702 mmHg 77%
    03:00 -1°C° 0.1 mm 4 m/s 702 mmHg 78%
    04:00 -1°C° 0 mm 4 m/s 703 mmHg 79%
    05:00 -2°C° 0 mm 4 m/s 703 mmHg 80%
    06:00 -2°C° 0 mm 4 m/s 703 mmHg 81%
    07:00 -2°C° 0 mm 5 m/s 703 mmHg 75%
    08:00 -1°C° 0 mm 5 m/s 703 mmHg 70%
    09:00 -1°C° 0 mm 6 m/s 704 mmHg 65%
    10:00 +1°C° 0 mm 6 m/s 703 mmHg 61%
    11:00 +2°C° 0 mm 7 m/s 703 mmHg 57%
    12:00 +2°C° 0 mm 7 m/s 703 mmHg 53%
    13:00 +2°C° 0 mm 7 m/s 703 mmHg 54%
    14:00 +2°C° 0 mm 7 m/s 703 mmHg 55%
    15:00 +2°C° 0 mm 7 m/s 703 mmHg 56%
    16:00 0°C° 0 mm 7 m/s 703 mmHg 61%
    17:00 -1°C° 0 mm 6 m/s 703 mmHg 66%
    18:00 -1°C° 0 mm 5 m/s 703 mmHg 71%
    19:00 -1°C° 0 mm 5 m/s 703 mmHg 74%
    20:00 -2°C° 0 mm 4 m/s 704 mmHg 76%
    21:00 -2°C° 0 mm 4 m/s 704 mmHg 79%
    22:00 -1°C° 0 mm 3 m/s 704 mmHg 80%
    23:00 -2°C° 0 mm 3 m/s 704 mmHg 81%

    24 Martie, Duminică

    Timp Temperatura Precipitaţii Vânt Presiune Umiditate
    00:00 -2°C° 0 mm 3 m/s 704 mmHg 82%
    01:00 -2°C° 0 mm 3 m/s 704 mmHg 82%
    02:00 -2°C° 0 mm 2 m/s 704 mmHg 82%
    03:00 -3°C° 0 mm 2 m/s 704 mmHg 82%
    04:00 -3°C° 0 mm 2 m/s 704 mmHg 80%
    05:00 -3°C° 0 mm 2 m/s 704 mmHg 79%
    06:00 -3°C° 0 mm 2 m/s 704 mmHg 77%
    07:00 -2°C° 0 mm 2 m/s 703 mmHg 68%
    08:00 0°C° 0 mm 3 m/s 703 mmHg 59%
    09:00 +1°C° 0 mm 3 m/s 703 mmHg 50%
    10:00 +3°C° 0 mm 3 m/s 702 mmHg 46%
    11:00 +4°C° 0 mm 4 m/s 702 mmHg 42%
    12:00 +5°C° 0 mm 4 m/s 701 mmHg 39%
    13:00 +6°C° 0 mm 4 m/s 701 mmHg 39%
    14:00 +6°C° 0 mm 5 m/s 701 mmHg 39%
    15:00 +7°C° 0 mm 5 m/s 700 mmHg 40%
    16:00 +5°C° 0 mm 5 m/s 700 mmHg 48%
    17:00 +3°C° 0 mm 5 m/s 700 mmHg 55%
    18:00 +3°C° 0 mm 4 m/s 700 mmHg 63%
    19:00 +3°C° 0 mm 4 m/s 701 mmHg 69%
    20:00 +1°C° 0 mm 4 m/s 701 mmHg 74%
    21:00 +1°C° 0 mm 3 m/s 701 mmHg 80%
    22:00 +1°C° 0 mm 3 m/s 701 mmHg 81%
    23:00 +1°C° 0 mm 3 m/s 701 mmHg 81%
    Arată mai mult